Time,TemperatureF,DewpointF,PressureIn,WindDirection,WindDirectionDegrees,WindSpeedMPH,WindSpeedGustMPH,Humidity,HourlyPrecipIn,Conditions,Clouds,dailyrainin,SoftwareType,DateUTC
2013-04-03 00:03:00,33.0,16.0,30.20,NNW,331,0.0,5.0,50,0.00,,,0.00,,2013-04-03 04:03:00,
2013-04-03 00:12:00,33.0,16.0,30.20,NNW,331,0.0,5.0,50,0.00,,,0.00,,2013-04-03 04:12:00,
2013-04-03 00:23:00,33.0,16.0,30.20,NNW,331,0.0,0.0,49,0.00,,,0.00,,2013-04-03 04:23:00,
2013-04-03 00:33:00,33.0,16.0,30.20,NNW,331,0.0,0.0,49,0.00,,,0.00,,2013-04-03 04:33:00,
2013-04-03 00:43:00,33.0,16.0,30.20,NNW,331,0.0,0.0,49,0.00,,,0.00,,2013-04-03 04:43:00,
2013-04-03 00:53:00,32.0,15.0,30.20,NW,315,0.0,0.0,48,0.00,,,0.00,,2013-04-03 04:53:00,
2013-04-03 01:02:00,32.0,15.0,30.20,NW,315,0.0,0.0,48,0.00,,,0.00,,2013-04-03 05:02:00,
2013-04-03 01:12:00,32.0,15.0,30.20,NW,315,0.0,0.0,48,0.00,,,0.00,,2013-04-03 05:12:00,
2013-04-03 01:22:00,32.0,15.0,30.20,NW,315,0.0,0.0,49,0.00,,,0.00,,2013-04-03 05:22:00,
2013-04-03 01:32:00,31.0,14.0,30.21,NW,315,0.0,0.0,49,0.00,,,0.00,,2013-04-03 05:32:00,
2013-04-03 01:42:00,31.0,14.0,30.21,NW,315,0.0,0.0,49,0.00,,,0.00,,2013-04-03 05:42:00,
2013-04-03 01:53:00,30.0,14.0,30.21,NW,315,0.0,0.0,51,0.00,,,0.00,,2013-04-03 05:53:00,
2013-04-03 02:02:00,30.0,15.0,30.22,NW,315,0.0,0.0,52,0.00,,,0.00,,2013-04-03 06:02:00,
2013-04-03 02:12:00,30.0,15.0,30.22,NW,315,0.0,0.0,52,0.00,,,0.00,,2013-04-03 06:12:00,
2013-04-03 02:22:00,29.0,14.0,30.22,NW,315,0.0,0.0,53,0.00,,,0.00,,2013-04-03 06:22:00,
2013-04-03 02:32:00,29.0,14.0,30.22,NW,315,0.0,0.0,53,0.00,,,0.00,,2013-04-03 06:32:00,
2013-04-03 02:42:00,29.0,14.0,30.22,NW,315,0.0,0.0,53,0.00,,,0.00,,2013-04-03 06:42:00,
2013-04-03 02:52:00,29.0,14.0,30.22,NW,315,0.0,0.0,54,0.00,,,0.00,,2013-04-03 06:52:00,
2013-04-03 03:02:00,28.0,14.0,30.22,NW,315,0.0,0.0,55,0.00,,,0.00,,2013-04-03 07:02:00,
2013-04-03 03:12:00,28.0,14.0,30.22,NW,315,0.0,0.0,55,0.00,,,0.00,,2013-04-03 07:12:00,
2013-04-03 03:23:00,28.0,14.0,30.22,NW,315,0.0,0.0,55,0.00,,,0.00,,2013-04-03 07:23:00,
2013-04-03 03:32:00,28.0,14.0,30.22,NW,315,0.0,0.0,56,0.00,,,0.00,,2013-04-03 07:32:00,
2013-04-03 03:42:00,28.0,14.0,30.22,NW,315,0.0,0.0,56,0.00,,,0.00,,2013-04-03 07:42:00,
2013-04-03 03:52:00,28.0,14.0,30.22,NW,315,0.0,0.0,56,0.00,,,0.00,,2013-04-03 07:52:00,
2013-04-03 04:03:00,27.0,14.0,30.22,NW,315,0.0,0.0,57,0.00,,,0.00,,2013-04-03 08:03:00,
2013-04-03 04:12:00,27.0,14.0,30.22,NW,315,0.0,0.0,57,0.00,,,0.00,,2013-04-03 08:12:00,
2013-04-03 04:22:00,27.0,14.0,30.22,NW,315,0.0,0.0,57,0.00,,,0.00,,2013-04-03 08:22:00,
2013-04-03 04:32:00,26.0,13.0,30.23,NW,315,0.0,0.0,58,0.00,,,0.00,,2013-04-03 08:32:00,
2013-04-03 04:42:00,26.0,13.0,30.23,NW,315,0.0,0.0,58,0.00,,,0.00,,2013-04-03 08:42:00,
2013-04-03 04:52:00,26.0,14.0,30.23,NW,315,0.0,0.0,59,0.00,,,0.00,,2013-04-03 08:52:00,
2013-04-03 05:02:00,26.0,14.0,30.24,NW,315,0.0,0.0,60,0.00,,,0.00,,2013-04-03 09:02:00,
2013-04-03 05:12:00,26.0,14.0,30.24,NW,315,0.0,0.0,60,0.00,,,0.00,,2013-04-03 09:12:00,
2013-04-03 05:22:00,26.0,14.0,30.24,NW,315,0.0,0.0,60,0.00,,,0.00,,2013-04-03 09:22:00,
2013-04-03 05:33:00,26.0,14.0,30.24,NW,315,0.0,0.0,60,0.00,,,0.00,,2013-04-03 09:33:00,
2013-04-03 05:43:00,26.0,14.0,30.24,NW,315,0.0,0.0,60,0.00,,,0.00,,2013-04-03 09:43:00,
2013-04-03 05:53:00,26.0,14.0,30.24,NW,315,0.0,0.0,61,0.00,,,0.00,,2013-04-03 09:53:00,
2013-04-03 06:03:00,25.0,13.0,30.24,NW,315,0.0,0.0,61,0.00,,,0.00,,2013-04-03 10:03:00,
2013-04-03 06:12:00,25.0,13.0,30.24,NW,315,0.0,0.0,61,0.00,,,0.00,,2013-04-03 10:12:00,
2013-04-03 06:22:00,25.0,13.0,30.24,NW,315,0.0,0.0,61,0.00,,,0.00,,2013-04-03 10:22:00,
2013-04-03 06:33:00,25.0,14.0,30.25,NW,315,0.0,0.0,62,0.00,,,0.00,,2013-04-03 10:33:00,
2013-04-03 06:43:00,25.0,14.0,30.25,NW,315,0.0,0.0,62,0.00,,,0.00,,2013-04-03 10:43:00,
2013-04-03 06:52:00,25.0,14.0,30.26,NW,315,0.0,0.0,62,0.00,,,0.00,,2013-04-03 10:52:00,
2013-04-03 07:02:00,24.0,13.0,30.27,NW,315,0.0,0.0,63,0.00,,,0.00,,2013-04-03 11:02:00,
2013-04-03 07:12:00,24.0,13.0,30.27,NW,315,0.0,0.0,63,0.00,,,0.00,,2013-04-03 11:12:00,
2013-04-03 07:23:00,24.0,14.0,30.27,NW,315,0.0,0.0,64,0.00,,,0.00,,2013-04-03 11:23:00,
2013-04-03 07:32:00,24.0,14.0,30.27,NW,315,0.0,0.0,65,0.00,,,0.00,,2013-04-03 11:32:00,
2013-04-03 07:42:00,24.0,14.0,30.27,NW,315,0.0,0.0,65,0.00,,,0.00,,2013-04-03 11:42:00,
2013-04-03 07:52:00,24.0,14.0,30.27,NW,315,0.0,0.0,65,0.00,,,0.00,,2013-04-03 11:52:00,
2013-04-03 08:02:00,24.0,14.0,30.27,NW,315,0.0,0.0,66,0.00,,,0.00,,2013-04-03 12:02:00,
2013-04-03 08:13:00,24.0,14.0,30.27,NW,315,0.0,0.0,66,0.00,,,0.00,,2013-04-03 12:13:00,
2013-04-03 08:22:00,25.0,15.0,30.27,NW,315,0.0,0.0,66,0.00,,,0.00,,2013-04-03 12:22:00,
2013-04-03 08:33:00,27.0,16.0,30.27,NW,315,0.0,0.0,63,0.00,,,0.00,,2013-04-03 12:33:00,
2013-04-03 08:42:00,27.0,16.0,30.27,NW,315,0.0,0.0,63,0.00,,,0.00,,2013-04-03 12:42:00,
2013-04-03 08:52:00,28.0,16.0,30.27,NW,315,0.0,0.0,61,0.00,,,0.00,,2013-04-03 12:52:00,
2013-04-03 09:02:00,30.0,17.0,30.29,NW,326,0.0,6.0,58,0.00,,,0.00,,2013-04-03 13:02:00,
2013-04-03 09:12:00,30.0,17.0,30.29,NW,326,0.0,6.0,58,0.00,,,0.00,,2013-04-03 13:12:00,
2013-04-03 09:22:00,31.0,17.0,30.30,NNW,347,0.0,5.0,55,0.00,,,0.00,,2013-04-03 13:22:00,
2013-04-03 09:32:00,33.0,18.0,30.31,NNW,340,0.0,3.0,53,0.00,,,0.00,,2013-04-03 13:32:00,
2013-04-03 09:42:00,33.0,18.0,30.31,NNW,340,0.0,3.0,53,0.00,,,0.00,,2013-04-03 13:42:00,
2013-04-03 09:52:00,33.0,17.0,30.32,NW,305,0.0,5.0,52,0.00,,,0.00,,2013-04-03 13:52:00,
2013-04-03 10:02:00,35.0,15.0,30.35,NNW,341,0.0,0.0,44,0.00,,,0.00,,2013-04-03 14:02:00,
2013-04-03 10:12:00,35.0,15.0,30.35,NNW,341,0.0,0.0,44,0.00,,,0.00,,2013-04-03 14:12:00,
2013-04-03 10:22:00,35.0,16.0,30.35,North,350,0.0,6.0,46,0.00,,,0.00,,2013-04-03 14:22:00,
2013-04-03 10:32:00,37.0,14.0,30.36,WNW,296,0.0,11.0,39,0.00,,,0.00,,2013-04-03 14:32:00,
2013-04-03 10:42:00,37.0,14.0,30.36,WNW,296,0.0,11.0,39,0.00,,,0.00,,2013-04-03 14:42:00,
2013-04-03 10:52:00,37.0,14.0,30.35,North,8,0.0,8.0,39,0.00,,,0.00,,2013-04-03 14:52:00,
2013-04-03 11:02:00,39.0,16.0,30.36,ENE,71,1.0,2.0,39,0.00,,,0.00,,2013-04-03 15:02:00,
2013-04-03 11:12:00,39.0,16.0,30.36,ENE,71,1.0,2.0,39,0.00,,,0.00,,2013-04-03 15:12:00,
2013-04-03 11:23:00,39.0,13.0,30.35,NNW,341,0.0,9.0,34,0.00,,,0.00,,2013-04-03 15:23:00,
2013-04-03 11:33:00,38.0,12.0,30.36,WNW,298,8.0,11.0,34,0.00,,,0.00,,2013-04-03 15:33:00,
2013-04-03 11:42:00,38.0,12.0,30.36,WNW,298,8.0,11.0,34,0.00,,,0.00,,2013-04-03 15:42:00,
2013-04-03 11:53:00,39.0,14.0,30.37,NW,310,0.0,7.0,36,0.00,,,0.00,,2013-04-03 15:53:00,
2013-04-03 12:03:00,40.0,15.0,30.36,North,11,0.0,10.0,35,0.00,,,0.00,,2013-04-03 16:03:00,
2013-04-03 12:13:00,40.0,15.0,30.36,North,11,0.0,10.0,35,0.00,,,0.00,,2013-04-03 16:13:00,
2013-04-03 12:24:00,40.0,13.0,30.36,NNW,345,3.0,15.0,33,0.00,,,0.00,,2013-04-03 16:24:00,
2013-04-03 12:33:00,40.0,14.0,30.35,NNW,344,6.0,13.0,34,0.00,,,0.00,,2013-04-03 16:33:00,
2013-04-03 12:43:00,40.0,14.0,30.35,NNW,344,6.0,13.0,34,0.00,,,0.00,,2013-04-03 16:43:00,
2013-04-03 12:52:00,42.0,15.0,30.35,North,350,8.0,15.0,33,0.00,,,0.00,,2013-04-03 16:52:00,
2013-04-03 13:03:00,42.0,14.0,30.35,WNW,293,3.0,14.0,32,0.00,,,0.00,,2013-04-03 17:03:00,
2013-04-03 13:13:00,42.0,14.0,30.35,WNW,293,3.0,14.0,32,0.00,,,0.00,,2013-04-03 17:13:00,
2013-04-03 13:23:00,42.0,16.0,30.34,NW,316,2.0,8.0,34,0.00,,,0.00,,2013-04-03 17:23:00,
2013-04-03 13:46:00,42.0,14.0,30.34,NNW,336,5.0,13.0,31,0.00,,,0.00,,2013-04-03 17:46:00,
2013-04-03 13:53:00,42.0,16.0,30.33,NW,306,6.0,14.0,34,0.00,,,0.00,,2013-04-03 17:53:00,
2013-04-03 14:02:00,44.0,15.0,30.33,WNW,302,5.0,13.0,31,0.00,,,0.00,,2013-04-03 18:02:00,
2013-04-03 14:13:00,44.0,15.0,30.33,WNW,302,5.0,13.0,31,0.00,,,0.00,,2013-04-03 18:13:00,
2013-04-03 14:23:00,44.0,15.0,30.33,NNW,345,9.0,14.0,31,0.00,,,0.00,,2013-04-03 18:23:00,
2013-04-03 14:33:00,44.0,17.0,30.34,NNW,336,3.0,0.0,33,0.00,,,0.00,,2013-04-03 18:33:00,
2013-04-03 14:43:00,44.0,17.0,30.34,NNW,336,3.0,0.0,33,0.00,,,0.00,,2013-04-03 18:43:00,
2013-04-03 14:52:00,45.0,18.0,30.33,NE,47,3.0,17.0,33,0.00,,,0.00,,2013-04-03 18:52:00,
2013-04-03 15:03:00,44.0,15.0,30.32,NNW,345,6.0,18.0,31,0.00,,,0.00,,2013-04-03 19:03:00,
2013-04-03 15:12:00,44.0,15.0,30.32,NNW,345,6.0,18.0,31,0.00,,,0.00,,2013-04-03 19:12:00,
2013-04-03 15:22:00,44.0,16.0,30.32,NW,313,2.0,12.0,32,0.00,,,0.00,,2013-04-03 19:22:00,
2013-04-03 15:32:00,43.0,14.0,30.31,NNW,345,8.0,16.0,31,0.00,,,0.00,,2013-04-03 19:32:00,
2013-04-03 15:42:00,43.0,14.0,30.31,NNW,345,8.0,16.0,31,0.00,,,0.00,,2013-04-03 19:42:00,
2013-04-03 15:52:00,44.0,17.0,30.31,NW,310,6.0,17.0,33,0.00,,,0.00,,2013-04-03 19:52:00,
2013-04-03 16:02:00,44.0,17.0,30.30,NNW,341,6.0,23.0,33,0.00,,,0.00,,2013-04-03 20:02:00,
2013-04-03 16:12:00,44.0,17.0,30.30,NNW,341,6.0,23.0,33,0.00,,,0.00,,2013-04-03 20:12:00,
2013-04-03 16:23:00,44.0,17.0,30.31,NW,312,5.0,18.0,33,0.00,,,0.00,,2013-04-03 20:23:00,
2013-04-03 16:33:00,45.0,15.0,30.30,NNW,343,10.0,18.0,30,0.00,,,0.00,,2013-04-03 20:33:00,
2013-04-03 16:42:00,45.0,15.0,30.30,NNW,343,10.0,18.0,30,0.00,,,0.00,,2013-04-03 20:42:00,
2013-04-03 16:52:00,45.0,16.0,30.31,NW,315,1.0,17.0,31,0.00,,,0.00,,2013-04-03 20:52:00,
2013-04-03 17:03:00,45.0,15.0,30.32,WNW,303,4.0,10.0,30,0.00,,,0.00,,2013-04-03 21:03:00,
2013-04-03 17:12:00,45.0,15.0,30.32,WNW,303,4.0,10.0,30,0.00,,,0.00,,2013-04-03 21:12:00,
2013-04-03 17:22:00,45.0,14.0,30.32,NW,319,6.0,13.0,28,0.00,,,0.00,,2013-04-03 21:22:00,
2013-04-03 17:33:00,45.0,14.0,30.32,North,351,0.0,12.0,28,0.00,,,0.00,,2013-04-03 21:33:00,
2013-04-03 17:42:00,45.0,14.0,30.32,North,351,0.0,12.0,28,0.00,,,0.00,,2013-04-03 21:42:00,
2013-04-03 17:52:00,45.0,13.0,30.32,NW,319,2.0,11.0,27,0.00,,,0.00,,2013-04-03 21:52:00,
2013-04-03 18:02:00,45.0,14.0,30.32,NW,305,1.0,13.0,28,0.00,,,0.00,,2013-04-03 22:02:00,
2013-04-03 18:12:00,45.0,14.0,30.32,NW,305,1.0,13.0,28,0.00,,,0.00,,2013-04-03 22:12:00,
2013-04-03 18:22:00,44.0,11.0,30.32,WSW,247,7.0,7.0,26,0.00,,,0.00,,2013-04-03 22:22:00,
2013-04-03 18:33:00,44.0,13.0,30.32,NNE,19,2.0,0.0,28,0.00,,,0.00,,2013-04-03 22:33:00,
2013-04-03 18:42:00,44.0,13.0,30.32,NNE,19,2.0,0.0,28,0.00,,,0.00,,2013-04-03 22:42:00,
2013-04-03 18:52:00,44.0,12.0,30.32,NNE,30,3.0,3.0,27,0.00,,,0.00,,2013-04-03 22:52:00,
2013-04-03 19:02:00,43.0,12.0,30.32,NNE,15,1.0,3.0,28,0.00,,,0.00,,2013-04-03 23:02:00,
2013-04-03 19:12:00,43.0,12.0,30.32,NNE,15,1.0,3.0,28,0.00,,,0.00,,2013-04-03 23:12:00,
2013-04-03 19:22:00,43.0,10.0,30.32,NE,36,5.0,5.0,26,0.00,,,0.00,,2013-04-03 23:22:00,
2013-04-03 19:33:00,42.0,11.0,30.32,NNE,30,0.0,7.0,28,0.00,,,0.00,,2013-04-03 23:33:00,
2013-04-03 19:42:00,42.0,11.0,30.32,NNE,30,0.0,7.0,28,0.00,,,0.00,,2013-04-03 23:42:00,
2013-04-03 19:53:00,42.0,12.0,30.32,NW,324,0.0,4.0,29,0.00,,,0.00,,2013-04-03 23:53:00,
2013-04-03 20:03:00,41.0,12.0,30.31,NNW,333,0.0,0.0,30,0.00,,,0.00,,2013-04-04 00:03:00,
2013-04-03 20:12:00,41.0,12.0,30.31,NNW,333,0.0,0.0,30,0.00,,,0.00,,2013-04-04 00:12:00,
2013-04-03 20:22:00,40.0,12.0,30.31,NNW,333,0.0,0.0,31,0.00,,,0.00,,2013-04-04 00:22:00,
2013-04-03 20:32:00,39.0,12.0,30.31,NNW,333,0.0,0.0,33,0.00,,,0.00,,2013-04-04 00:32:00,
2013-04-03 20:43:00,39.0,12.0,30.31,NNW,333,0.0,0.0,33,0.00,,,0.00,,2013-04-04 00:43:00,
2013-04-03 20:52:00,39.0,12.0,30.31,NNW,333,0.0,0.0,33,0.00,,,0.00,,2013-04-04 00:52:00,
2013-04-03 21:02:00,38.0,12.0,30.31,ENE,57,0.0,0.0,34,0.00,,,0.00,,2013-04-04 01:02:00,
2013-04-03 21:12:00,38.0,12.0,30.31,ENE,57,0.0,0.0,34,0.00,,,0.00,,2013-04-04 01:12:00,
2013-04-03 21:22:00,38.0,13.0,30.31,ENE,70,0.0,0.0,35,0.00,,,0.00,,2013-04-04 01:22:00,
2013-04-03 21:32:00,38.0,13.0,30.31,NE,53,0.0,0.0,35,0.00,,,0.00,,2013-04-04 01:32:00,
2013-04-03 21:43:00,38.0,13.0,30.31,NE,53,0.0,0.0,35,0.00,,,0.00,,2013-04-04 01:43:00,
2013-04-03 21:52:00,38.0,13.0,30.31,NE,53,0.0,0.0,35,0.00,,,0.00,,2013-04-04 01:52:00,
2013-04-03 22:02:00,37.0,13.0,30.31,ENE,61,0.0,0.0,36,0.00,,,0.00,,2013-04-04 02:02:00,
2013-04-03 22:12:00,37.0,13.0,30.31,ENE,61,0.0,0.0,36,0.00,,,0.00,,2013-04-04 02:12:00,
2013-04-03 22:22:00,37.0,13.0,30.31,ENE,61,0.0,0.0,37,0.00,,,0.00,,2013-04-04 02:22:00,
2013-04-03 22:32:00,36.0,12.0,30.31,ENE,61,0.0,0.0,37,0.00,,,0.00,,2013-04-04 02:32:00,
2013-04-03 22:42:00,36.0,12.0,30.31,ENE,61,0.0,0.0,37,0.00,,,0.00,,2013-04-04 02:42:00,
2013-04-03 22:52:00,36.0,12.0,30.31,ENE,61,0.0,0.0,37,0.00,,,0.00,,2013-04-04 02:52:00,
2013-04-03 23:02:00,35.0,13.0,30.31,ENE,68,3.0,0.0,39,0.00,,,0.00,,2013-04-04 03:02:00,
2013-04-03 23:12:00,35.0,13.0,30.31,ENE,68,3.0,0.0,39,0.00,,,0.00,,2013-04-04 03:12:00,
2013-04-03 23:22:00,35.0,13.0,30.30,NE,42,0.0,9.0,39,0.00,,,0.00,,2013-04-04 03:22:00,
2013-04-03 23:33:00,34.0,12.0,30.31,NE,49,0.0,0.0,40,0.00,,,0.00,,2013-04-04 03:33:00,
2013-04-03 23:45:00,34.0,12.0,30.31,NE,49,0.0,0.0,40,0.00,,,0.00,,2013-04-04 03:45:00,
2013-04-03 23:53:00,34.0,12.0,30.30,NNE,23,0.0,5.0,40,0.00,,,0.00,,2013-04-04 03:53:00,